Location: Bern/Schweiz
(46.9381°N, 7.4364°E)
Time: 21:11:14
(UTC+01:00)

ISS - Pass Details

Date: 30 September 2020
Orbit: 417 x 420 km, 51.6° (Epoch: 27 October)

Event Time Altitude Azimuth Distance (km) Brightness Sun altitude
Rises 20:16:19 0° 292° (WNW) 2,370 1.8 -11.9°
Reaches altitude 10° 20:18:29 10° 299° (WNW) 1,505 0.3 -12.3°
Maximum altitude 20:21:44 44° 13° (NNE) 590 -3.1 -12.8°
Enters shadow 20:23:33 22° 76° (ENE) 967 -2.5 -13.1°
